Volver al catálogo

YZ-1 R/B

LostMEO
NORAD 43210·ROCKET BODY·🇨🇳 China

Lanzado Feb 12, 2018 desde Xichang Satellite Launch Center

Loading…

Próximos Pases (próximas 24 horas)

TLE

ObsoletoSource: Space-Track

Época: Aug 2, 2026, 04:15 UTC

1 43210U 18018D   26214.17738462 -.00000008  00000-0  00000-0 0  9990
2 43210  56.4678  69.6530 0038916 103.2863 257.2335  1.79055524 55383

Sigue YZ-1 R/B en tiempo real con AllMySat

Download on the App Store